Year,Month,Day,Hour,Minute,Value (Times are PST for temperature in C)
2017,06,23,00,00,15.60
2017,06,23,00,01,15.60
2017,06,23,00,02,15.60
2017,06,23,00,03,15.60
2017,06,23,00,04,15.60
2017,06,23,00,05,15.50
2017,06,23,00,06,15.50
2017,06,23,00,07,15.50
2017,06,23,00,08,15.40
2017,06,23,00,09,15.40
2017,06,23,00,10,15.40
2017,06,23,00,11,15.40
2017,06,23,00,12,15.30
2017,06,23,00,13,15.30
2017,06,23,00,14,15.30
2017,06,23,00,15,15.30
2017,06,23,00,16,15.20
2017,06,23,00,17,15.10
2017,06,23,00,18,15.10
2017,06,23,00,19,15.00
2017,06,23,00,20,14.90
2017,06,23,00,21,14.90
2017,06,23,00,22,14.80
2017,06,23,00,23,14.80
2017,06,23,00,24,14.80
2017,06,23,00,25,14.80
2017,06,23,00,26,14.80
2017,06,23,00,27,14.80
2017,06,23,00,28,14.80
2017,06,23,00,29,14.80
2017,06,23,00,30,14.80
2017,06,23,00,31,14.90
2017,06,23,00,32,14.90
2017,06,23,00,33,14.90
2017,06,23,00,34,14.90
2017,06,23,00,35,14.80
2017,06,23,00,36,14.90
2017,06,23,00,37,14.90
2017,06,23,00,38,14.90
2017,06,23,00,39,14.90
2017,06,23,00,40,14.90
2017,06,23,00,41,14.90
2017,06,23,00,42,14.80
2017,06,23,00,43,14.80
2017,06,23,00,44,14.80
2017,06,23,00,45,14.80
2017,06,23,00,46,14.80
2017,06,23,00,47,14.80
2017,06,23,00,48,14.80
2017,06,23,00,49,14.80
2017,06,23,00,50,14.80
2017,06,23,00,51,14.80
2017,06,23,00,52,14.80
2017,06,23,00,53,14.80
2017,06,23,00,54,14.80
2017,06,23,00,55,14.80
2017,06,23,00,56,14.80
2017,06,23,00,57,14.80
2017,06,23,00,58,14.70
2017,06,23,00,59,14.70
2017,06,23,01,00,14.70
2017,06,23,01,01,14.70
2017,06,23,01,02,14.70
2017,06,23,01,03,14.70
2017,06,23,01,04,14.70
2017,06,23,01,05,14.70
2017,06,23,01,06,14.70
2017,06,23,01,07,14.70
2017,06,23,01,08,14.70
2017,06,23,01,09,14.70
2017,06,23,01,10,14.70
2017,06,23,01,11,14.60
2017,06,23,01,12,14.60
2017,06,23,01,13,14.60
2017,06,23,01,14,14.60
2017,06,23,01,15,14.60
2017,06,23,01,16,14.60
2017,06,23,01,17,14.60
2017,06,23,01,18,14.60
2017,06,23,01,19,14.60
2017,06,23,01,20,14.50
2017,06,23,01,21,14.50
2017,06,23,01,22,14.40
2017,06,23,01,23,14.40
2017,06,23,01,24,14.40
2017,06,23,01,25,14.40
2017,06,23,01,26,14.40
2017,06,23,01,27,14.40
2017,06,23,01,28,14.40
2017,06,23,01,29,14.40
2017,06,23,01,30,14.50
2017,06,23,01,31,14.50
2017,06,23,01,32,14.50
2017,06,23,01,33,14.50
2017,06,23,01,34,14.50
2017,06,23,01,35,14.50
2017,06,23,01,36,14.50
2017,06,23,01,37,14.50
2017,06,23,01,38,14.50
2017,06,23,01,39,14.40
2017,06,23,01,40,14.40
2017,06,23,01,41,14.40
2017,06,23,01,42,14.40
2017,06,23,01,43,14.40
2017,06,23,01,44,14.40
2017,06,23,01,45,14.30
2017,06,23,01,46,14.30
2017,06,23,01,47,14.30
2017,06,23,01,48,14.30
2017,06,23,01,49,14.30
2017,06,23,01,50,14.30
2017,06,23,01,51,14.30
2017,06,23,01,52,14.30
2017,06,23,01,53,14.20
2017,06,23,01,54,14.20
2017,06,23,01,55,14.20
2017,06,23,01,56,14.20
2017,06,23,01,57,14.20
2017,06,23,01,58,14.20
2017,06,23,01,59,14.20
2017,06,23,02,00,14.20
2017,06,23,02,01,14.20
2017,06,23,02,02,14.20
2017,06,23,02,03,14.20
2017,06,23,02,04,14.20
2017,06,23,02,05,14.20
2017,06,23,02,06,14.20
2017,06,23,02,07,14.10
2017,06,23,02,08,14.20
2017,06,23,02,09,14.20
2017,06,23,02,10,14.10
2017,06,23,02,11,14.10
2017,06,23,02,12,14.10
2017,06,23,02,13,14.10
2017,06,23,02,14,14.10
2017,06,23,02,15,14.10
2017,06,23,02,16,14.10
2017,06,23,02,17,14.10
2017,06,23,02,18,14.10
2017,06,23,02,19,14.10
2017,06,23,02,20,14.10
2017,06,23,02,21,14.10
2017,06,23,02,22,14.10
2017,06,23,02,23,14.10
2017,06,23,02,24,14.10
2017,06,23,02,25,14.10
2017,06,23,02,26,14.10
2017,06,23,02,27,14.10
2017,06,23,02,28,14.00
2017,06,23,02,29,14.00
2017,06,23,02,30,14.00
2017,06,23,02,31,14.00
2017,06,23,02,32,14.00
2017,06,23,02,33,13.90
2017,06,23,02,34,13.90
2017,06,23,02,35,13.90
2017,06,23,02,36,13.90
2017,06,23,02,37,13.90
2017,06,23,02,38,13.80
2017,06,23,02,39,13.80
2017,06,23,02,40,13.80
2017,06,23,02,41,13.80
2017,06,23,02,42,13.80
2017,06,23,02,43,13.80
2017,06,23,02,44,13.80
2017,06,23,02,45,13.80
2017,06,23,02,46,13.80
2017,06,23,02,47,13.80
2017,06,23,02,48,13.80
2017,06,23,02,49,13.80
2017,06,23,02,50,13.80
2017,06,23,02,51,13.70
2017,06,23,02,52,13.70
2017,06,23,02,53,13.70
2017,06,23,02,54,13.70
2017,06,23,02,55,13.60
2017,06,23,02,56,13.60
2017,06,23,02,57,13.60
2017,06,23,02,58,13.60
2017,06,23,02,59,13.60
2017,06,23,03,00,13.50
2017,06,23,03,01,13.50
2017,06,23,03,02,13.40
2017,06,23,03,03,13.40
2017,06,23,03,04,13.40
2017,06,23,03,05,13.40
2017,06,23,03,06,13.40
2017,06,23,03,07,13.40
2017,06,23,03,08,13.40
2017,06,23,03,09,13.40
2017,06,23,03,10,13.40
2017,06,23,03,11,13.40
2017,06,23,03,12,13.30
2017,06,23,03,13,13.30
2017,06,23,03,14,13.30
2017,06,23,03,15,13.30
2017,06,23,03,16,13.30
2017,06,23,03,17,13.30
2017,06,23,03,18,13.30
2017,06,23,03,19,13.30
2017,06,23,03,20,13.30
2017,06,23,03,21,13.30
2017,06,23,03,22,13.30
2017,06,23,03,23,13.30
2017,06,23,03,24,13.30
2017,06,23,03,25,13.30
2017,06,23,03,26,13.30
2017,06,23,03,27,13.30
2017,06,23,03,28,13.30
2017,06,23,03,29,13.30
2017,06,23,03,30,13.30
2017,06,23,03,31,13.30
2017,06,23,03,32,13.30
2017,06,23,03,33,13.30
2017,06,23,03,34,13.30
2017,06,23,03,35,13.30
2017,06,23,03,36,13.30
2017,06,23,03,37,13.30
2017,06,23,03,38,13.30
2017,06,23,03,39,13.30
2017,06,23,03,40,13.30
2017,06,23,03,41,13.30
2017,06,23,03,42,13.30
2017,06,23,03,43,13.30
2017,06,23,03,44,13.30
2017,06,23,03,45,13.30
2017,06,23,03,46,13.30
2017,06,23,03,47,13.30
2017,06,23,03,48,13.30
2017,06,23,03,49,13.30
2017,06,23,03,50,13.30
2017,06,23,03,51,13.30
2017,06,23,03,52,13.30
2017,06,23,03,53,13.30
2017,06,23,03,54,13.30
2017,06,23,03,55,13.30
2017,06,23,03,56,13.30
2017,06,23,03,57,13.30
2017,06,23,03,58,13.30
2017,06,23,03,59,13.30
2017,06,23,04,00,13.30
2017,06,23,04,01,13.30
2017,06,23,04,02,13.30
2017,06,23,04,03,13.20
2017,06,23,04,04,13.20
2017,06,23,04,05,13.20
2017,06,23,04,06,13.20
2017,06,23,04,07,13.20
2017,06,23,04,08,13.20
2017,06,23,04,09,13.20
2017,06,23,04,10,13.20
2017,06,23,04,11,13.20
2017,06,23,04,12,13.20
2017,06,23,04,13,13.20
2017,06,23,04,14,13.20
2017,06,23,04,15,13.20
2017,06,23,04,16,13.20
2017,06,23,04,17,13.20
2017,06,23,04,18,13.20
2017,06,23,04,19,13.20
2017,06,23,04,20,13.20
2017,06,23,04,21,13.20
2017,06,23,04,22,13.20
2017,06,23,04,23,13.20
2017,06,23,04,24,13.10
2017,06,23,04,25,13.10
2017,06,23,04,26,13.10
2017,06,23,04,27,13.10
2017,06,23,04,28,13.10
2017,06,23,04,29,13.10
2017,06,23,04,30,13.10
2017,06,23,04,31,13.10
2017,06,23,04,32,13.10
2017,06,23,04,33,13.10
2017,06,23,04,34,13.10
2017,06,23,04,35,13.10
2017,06,23,04,36,13.10
2017,06,23,04,37,13.10
2017,06,23,04,38,13.10
2017,06,23,04,39,13.10
2017,06,23,04,40,13.10
2017,06,23,04,41,13.00
2017,06,23,04,42,13.00
2017,06,23,04,43,13.00
2017,06,23,04,44,13.00
2017,06,23,04,45,13.00
2017,06,23,04,46,12.90
2017,06,23,04,47,12.90
2017,06,23,04,48,12.90
2017,06,23,04,49,12.90
2017,06,23,04,50,12.90
2017,06,23,04,51,12.80
2017,06,23,04,52,12.80
2017,06,23,04,53,12.80
2017,06,23,04,54,12.80
2017,06,23,04,55,12.80
2017,06,23,04,56,12.80
2017,06,23,04,57,12.80
2017,06,23,04,58,12.80
2017,06,23,04,59,12.80
2017,06,23,05,00,12.80
2017,06,23,05,01,12.80
2017,06,23,05,02,12.80
2017,06,23,05,03,12.80
2017,06,23,05,04,12.70
2017,06,23,05,05,12.70
2017,06,23,05,06,12.70
2017,06,23,05,07,12.70
2017,06,23,05,08,12.70
2017,06,23,05,09,12.70
2017,06,23,05,10,12.70
2017,06,23,05,11,12.70
2017,06,23,05,12,12.70
2017,06,23,05,13,12.70
2017,06,23,05,14,12.80
2017,06,23,05,15,12.80
2017,06,23,05,16,12.80
2017,06,23,05,17,12.80
2017,06,23,05,18,12.80
2017,06,23,05,19,12.80
2017,06,23,05,20,12.80
2017,06,23,05,21,12.80
2017,06,23,05,22,12.80
2017,06,23,05,23,12.80
2017,06,23,05,24,12.80
2017,06,23,05,25,12.80
2017,06,23,05,26,12.80
2017,06,23,05,27,12.80
2017,06,23,05,28,12.80
2017,06,23,05,29,12.80
2017,06,23,05,30,12.80
2017,06,23,05,31,12.80
2017,06,23,05,32,12.80
2017,06,23,05,33,12.70
2017,06,23,05,34,12.70
2017,06,23,05,35,12.70
2017,06,23,05,36,12.70
2017,06,23,05,37,12.70
2017,06,23,05,38,12.70
2017,06,23,05,39,12.70
2017,06,23,05,40,12.70
2017,06,23,05,41,12.60
2017,06,23,05,42,12.70
2017,06,23,05,43,12.70
2017,06,23,05,44,12.70
2017,06,23,05,45,12.70
2017,06,23,05,46,12.70
2017,06,23,05,47,12.70
2017,06,23,05,48,12.70
2017,06,23,05,49,12.70
2017,06,23,05,50,12.70
2017,06,23,05,51,12.70
2017,06,23,05,52,12.70
2017,06,23,05,53,12.70
2017,06,23,05,54,12.70
2017,06,23,05,55,12.70
2017,06,23,05,56,12.70
2017,06,23,05,57,12.70
2017,06,23,05,58,12.70
2017,06,23,05,59,12.70
2017,06,23,06,00,12.70
2017,06,23,06,01,12.70
2017,06,23,06,02,12.70
2017,06,23,06,03,12.70
2017,06,23,06,04,12.70
2017,06,23,06,05,12.70
2017,06,23,06,06,12.70
2017,06,23,06,07,12.70
2017,06,23,06,08,12.70
2017,06,23,06,09,12.70
2017,06,23,06,10,12.70
2017,06,23,06,11,12.80
2017,06,23,06,12,12.80
2017,06,23,06,13,12.80
2017,06,23,06,14,12.80
2017,06,23,06,15,12.80
2017,06,23,06,16,12.80
2017,06,23,06,17,12.80
2017,06,23,06,18,12.80
2017,06,23,06,19,12.80
2017,06,23,06,20,12.80
2017,06,23,06,21,12.80
2017,06,23,06,22,12.80
2017,06,23,06,23,12.80
2017,06,23,06,24,12.80
2017,06,23,06,25,12.80
2017,06,23,06,26,12.80
2017,06,23,06,27,12.80
2017,06,23,06,28,12.80
2017,06,23,06,29,12.80
2017,06,23,06,30,12.80
2017,06,23,06,31,12.80
2017,06,23,06,32,12.80
2017,06,23,06,33,12.80
2017,06,23,06,34,12.80
2017,06,23,06,35,12.80
2017,06,23,06,36,12.80
2017,06,23,06,37,12.80
2017,06,23,06,38,12.80
2017,06,23,06,39,12.80
2017,06,23,06,40,12.80
2017,06,23,06,41,12.80
2017,06,23,06,42,12.90
2017,06,23,06,43,12.90
2017,06,23,06,44,12.90
2017,06,23,06,45,12.90
2017,06,23,06,46,12.90
2017,06,23,06,47,13.00
2017,06,23,06,48,13.00
2017,06,23,06,49,13.00
2017,06,23,06,50,13.00
2017,06,23,06,51,13.00
2017,06,23,06,52,13.00
2017,06,23,06,53,13.10
2017,06,23,06,54,13.10
2017,06,23,06,55,13.10
2017,06,23,06,56,13.10
2017,06,23,06,57,13.10
2017,06,23,06,58,13.10
2017,06,23,06,59,13.10
2017,06,23,07,00,13.10
2017,06,23,07,01,13.10
2017,06,23,07,02,13.10
2017,06,23,07,03,13.10
2017,06,23,07,04,13.10
2017,06,23,07,05,13.10
2017,06,23,07,06,13.10
2017,06,23,07,07,13.20
2017,06,23,07,08,13.20
2017,06,23,07,09,13.20
2017,06,23,07,10,13.20
2017,06,23,07,11,13.20
2017,06,23,07,12,13.20
2017,06,23,07,13,13.20
2017,06,23,07,14,13.20
2017,06,23,07,15,13.20
2017,06,23,07,16,13.20
2017,06,23,07,17,13.20
2017,06,23,07,18,13.30
2017,06,23,07,19,13.30
2017,06,23,07,20,13.30
2017,06,23,07,21,13.30
2017,06,23,07,22,13.30
2017,06,23,07,23,13.30
2017,06,23,07,24,13.30
2017,06,23,07,25,13.30
2017,06,23,07,26,13.30
2017,06,23,07,27,13.30
2017,06,23,07,28,13.30
2017,06,23,07,29,13.40
2017,06,23,07,30,13.40
2017,06,23,07,31,13.40
2017,06,23,07,32,13.40
2017,06,23,07,33,13.40
2017,06,23,07,34,13.40
2017,06,23,07,35,13.40
2017,06,23,07,36,13.50
2017,06,23,07,37,13.50
2017,06,23,07,38,13.50
2017,06,23,07,39,13.50
2017,06,23,07,40,13.60
2017,06,23,07,41,13.60
2017,06,23,07,42,13.60
2017,06,23,07,43,13.60
2017,06,23,07,44,13.60
2017,06,23,07,45,13.70
2017,06,23,07,46,13.70
2017,06,23,07,47,13.70
2017,06,23,07,48,13.70
2017,06,23,07,49,13.80
2017,06,23,07,50,13.80
2017,06,23,07,51,13.80
2017,06,23,07,52,13.90
2017,06,23,07,53,13.90
2017,06,23,07,54,13.90
2017,06,23,07,55,14.00
2017,06,23,07,56,14.10
2017,06,23,07,57,14.10
2017,06,23,07,58,14.10
2017,06,23,07,59,14.20
2017,06,23,08,00,14.20
2017,06,23,08,01,14.20
2017,06,23,08,02,14.20
2017,06,23,08,03,14.20
2017,06,23,08,04,14.20
2017,06,23,08,05,14.30
2017,06,23,08,06,14.30
2017,06,23,08,07,14.30
2017,06,23,08,08,14.30
2017,06,23,08,09,14.40
2017,06,23,08,10,14.40
2017,06,23,08,11,14.50
2017,06,23,08,12,14.50
2017,06,23,08,13,14.50
2017,06,23,08,14,14.60
2017,06,23,08,15,14.60
2017,06,23,08,16,14.70
2017,06,23,08,17,14.70
2017,06,23,08,18,14.70
2017,06,23,08,19,14.80
2017,06,23,08,20,14.80
2017,06,23,08,21,14.80
2017,06,23,08,22,14.80
2017,06,23,08,23,14.90
2017,06,23,08,24,14.90
2017,06,23,08,25,14.90
2017,06,23,08,26,14.90
2017,06,23,08,27,14.90
2017,06,23,08,28,15.00
2017,06,23,08,29,15.00
2017,06,23,08,30,15.00
2017,06,23,08,31,15.10
2017,06,23,08,32,15.10
2017,06,23,08,33,15.20
2017,06,23,08,34,15.20
2017,06,23,08,35,15.30
2017,06,23,08,36,15.30
2017,06,23,08,37,15.40
2017,06,23,08,38,15.40
2017,06,23,08,39,15.40
2017,06,23,08,40,15.40
2017,06,23,08,41,15.40
2017,06,23,08,42,15.40
2017,06,23,08,43,15.40
2017,06,23,08,44,15.40
2017,06,23,08,45,15.50
2017,06,23,08,46,15.50
2017,06,23,08,47,15.50
2017,06,23,08,48,15.60
2017,06,23,08,49,15.60
2017,06,23,08,50,15.70
2017,06,23,08,51,15.80
2017,06,23,08,52,15.80
2017,06,23,08,53,15.90
2017,06,23,08,54,15.90
2017,06,23,08,55,16.00
2017,06,23,08,56,16.00
2017,06,23,08,57,16.00
2017,06,23,08,58,16.10
2017,06,23,08,59,16.10
2017,06,23,09,00,16.20
2017,06,23,09,01,16.20
2017,06,23,09,02,16.30
2017,06,23,09,03,16.30
2017,06,23,09,04,16.30
2017,06,23,09,05,16.40
2017,06,23,09,06,16.40
2017,06,23,09,07,16.40
2017,06,23,09,08,16.50
2017,06,23,09,09,16.50
2017,06,23,09,10,16.60
2017,06,23,09,11,16.70
2017,06,23,09,12,16.70
2017,06,23,09,13,16.80
2017,06,23,09,14,16.90
2017,06,23,09,15,16.90
2017,06,23,09,16,17.00
2017,06,23,09,17,17.00
2017,06,23,09,18,17.00
2017,06,23,09,19,17.10
2017,06,23,09,20,17.10
2017,06,23,09,21,17.10
2017,06,23,09,22,17.10
2017,06,23,09,23,17.20
2017,06,23,09,24,17.20
2017,06,23,09,25,17.20
2017,06,23,09,26,17.20
2017,06,23,09,27,17.20
2017,06,23,09,28,17.20
2017,06,23,09,29,17.10
2017,06,23,09,30,17.10
2017,06,23,09,31,17.00
2017,06,23,09,32,16.90
2017,06,23,09,33,16.90
2017,06,23,09,34,17.00
2017,06,23,09,35,17.00
2017,06,23,09,36,17.10
2017,06,23,09,37,17.10
2017,06,23,09,38,17.20
2017,06,23,09,39,17.30
2017,06,23,09,40,17.30
2017,06,23,09,41,17.30
2017,06,23,09,42,17.40
2017,06,23,09,43,17.40
2017,06,23,09,44,17.50
2017,06,23,09,45,17.60
2017,06,23,09,46,17.70
2017,06,23,09,47,17.70
2017,06,23,09,48,17.80
2017,06,23,09,49,17.80
2017,06,23,09,50,17.80
2017,06,23,09,51,17.80
2017,06,23,09,52,17.80
2017,06,23,09,53,17.90
2017,06,23,09,54,17.90
2017,06,23,09,55,17.90
2017,06,23,09,56,17.90
2017,06,23,09,57,17.90
2017,06,23,09,58,17.80
2017,06,23,09,59,17.90
2017,06,23,10,00,17.90
2017,06,23,10,01,17.90
2017,06,23,10,02,17.90
2017,06,23,10,03,17.90
2017,06,23,10,04,17.90
2017,06,23,10,05,17.90
2017,06,23,10,06,17.80
2017,06,23,10,07,17.80
2017,06,23,10,08,17.80
2017,06,23,10,09,17.90
2017,06,23,10,10,17.90
2017,06,23,10,11,17.90
2017,06,23,10,12,17.90
2017,06,23,10,13,17.90
2017,06,23,10,14,17.90
2017,06,23,10,15,17.80
2017,06,23,10,16,17.80
2017,06,23,10,17,17.90
2017,06,23,10,18,17.90
2017,06,23,10,19,18.00
2017,06,23,10,20,18.00
2017,06,23,10,21,18.10
2017,06,23,10,22,18.10
2017,06,23,10,23,18.20
2017,06,23,10,24,18.20
2017,06,23,10,25,18.20
2017,06,23,10,26,18.20
2017,06,23,10,27,18.20
2017,06,23,10,28,18.30
2017,06,23,10,29,18.40
2017,06,23,10,30,18.50
2017,06,23,10,31,18.60
2017,06,23,10,32,18.70
2017,06,23,10,33,18.80
2017,06,23,10,34,18.90
2017,06,23,10,35,18.90
2017,06,23,10,36,18.90
2017,06,23,10,37,18.90
2017,06,23,10,38,18.90
2017,06,23,10,39,18.90
2017,06,23,10,40,18.90
2017,06,23,10,41,18.90
2017,06,23,10,42,19.00
2017,06,23,10,43,19.10
2017,06,23,10,44,19.20
2017,06,23,10,45,19.20
2017,06,23,10,46,19.30
2017,06,23,10,47,19.30
2017,06,23,10,48,19.40
2017,06,23,10,49,19.40
2017,06,23,10,50,19.50
2017,06,23,10,51,19.50
2017,06,23,10,52,19.50
2017,06,23,10,53,19.60
2017,06,23,10,54,19.60
2017,06,23,10,55,19.60
2017,06,23,10,56,19.60
2017,06,23,10,57,19.50
2017,06,23,10,58,19.50
2017,06,23,10,59,19.40
2017,06,23,11,00,19.30
2017,06,23,11,01,19.20
2017,06,23,11,02,19.10
2017,06,23,11,03,19.10
2017,06,23,11,04,19.20
2017,06,23,11,05,19.30
2017,06,23,11,06,19.40
2017,06,23,11,07,19.50
2017,06,23,11,08,19.60
2017,06,23,11,09,19.60
2017,06,23,11,10,19.60
2017,06,23,11,11,19.60
2017,06,23,11,12,19.60
2017,06,23,11,13,19.70
2017,06,23,11,14,19.70
2017,06,23,11,15,19.70
2017,06,23,11,16,19.80
2017,06,23,11,17,19.90
2017,06,23,11,18,20.00
2017,06,23,11,19,20.10
2017,06,23,11,20,20.20
2017,06,23,11,21,20.30
2017,06,23,11,22,20.40
2017,06,23,11,23,20.40
2017,06,23,11,24,20.50
2017,06,23,11,25,20.60
2017,06,23,11,26,20.70
2017,06,23,11,27,20.70
2017,06,23,11,28,20.70
2017,06,23,11,29,20.80
2017,06,23,11,30,20.80
2017,06,23,11,31,20.80
2017,06,23,11,32,20.90
2017,06,23,11,33,20.90
2017,06,23,11,34,20.90
2017,06,23,11,35,21.00
2017,06,23,11,36,21.00
2017,06,23,11,37,21.00
2017,06,23,11,38,21.00
2017,06,23,11,39,21.10
2017,06,23,11,40,21.20
2017,06,23,11,41,21.30
2017,06,23,11,42,21.30
2017,06,23,11,43,21.30
2017,06,23,11,44,21.40
2017,06,23,11,45,21.40
2017,06,23,11,46,21.40
2017,06,23,11,47,21.50
2017,06,23,11,48,21.50
2017,06,23,11,49,21.60
2017,06,23,11,50,21.60
2017,06,23,11,51,21.60
2017,06,23,11,52,21.60
2017,06,23,11,53,21.60
2017,06,23,11,54,21.50
2017,06,23,11,55,21.50
2017,06,23,11,56,21.40
2017,06,23,11,57,21.40
2017,06,23,11,58,21.40
2017,06,23,11,59,21.40
2017,06,23,12,00,21.40
2017,06,23,12,01,21.40
2017,06,23,12,02,21.50
2017,06,23,12,03,21.50
2017,06,23,12,04,21.60
2017,06,23,12,05,21.60
2017,06,23,12,06,21.60
2017,06,23,12,07,21.60
2017,06,23,12,08,21.60
2017,06,23,12,09,21.70
2017,06,23,12,10,21.80
2017,06,23,12,11,21.80
2017,06,23,12,12,21.90
2017,06,23,12,13,21.90
2017,06,23,12,14,21.90
2017,06,23,12,15,22.00
2017,06,23,12,16,22.00
2017,06,23,12,17,22.10
2017,06,23,12,18,22.10
2017,06,23,12,19,22.10
2017,06,23,12,20,22.10
2017,06,23,12,21,22.10
2017,06,23,12,22,22.20
2017,06,23,12,23,22.30
2017,06,23,12,24,22.30
2017,06,23,12,25,22.30
2017,06,23,12,26,22.30
2017,06,23,12,27,22.30
2017,06,23,12,28,22.30
2017,06,23,12,29,22.30
2017,06,23,12,30,22.40
2017,06,23,12,31,22.50
2017,06,23,12,32,22.50
2017,06,23,12,33,22.50
2017,06,23,12,34,22.60
2017,06,23,12,35,22.70
2017,06,23,12,36,22.80
2017,06,23,12,37,22.80
2017,06,23,12,38,22.90
2017,06,23,12,39,22.80
2017,06,23,12,40,22.80
2017,06,23,12,41,22.80
2017,06,23,12,42,22.80
2017,06,23,12,43,22.80
2017,06,23,12,44,22.80
2017,06,23,12,45,22.80
2017,06,23,12,46,22.80
2017,06,23,12,47,22.80
2017,06,23,12,48,22.90
2017,06,23,12,49,22.90
2017,06,23,12,50,22.90
2017,06,23,12,51,22.90
2017,06,23,12,52,22.90
2017,06,23,12,53,23.00
2017,06,23,12,54,23.10
2017,06,23,12,55,23.10
2017,06,23,12,56,23.10
2017,06,23,12,57,23.20
2017,06,23,12,58,23.20
2017,06,23,12,59,23.30
2017,06,23,13,00,23.40
2017,06,23,13,01,23.40
2017,06,23,13,02,23.40
2017,06,23,13,03,23.40
2017,06,23,13,04,23.50
2017,06,23,13,05,23.40
2017,06,23,13,06,23.40
2017,06,23,13,07,23.30
2017,06,23,13,08,23.40
2017,06,23,13,09,23.50
2017,06,23,13,10,23.60
2017,06,23,13,11,23.70
2017,06,23,13,12,23.80
2017,06,23,13,13,23.80
2017,06,23,13,14,23.90
2017,06,23,13,15,23.80
2017,06,23,13,16,23.80
2017,06,23,13,17,23.80
2017,06,23,13,18,23.80
2017,06,23,13,19,23.80
2017,06,23,13,20,23.80
2017,06,23,13,21,23.90
2017,06,23,13,22,24.00
2017,06,23,13,23,24.00
2017,06,23,13,24,24.10
2017,06,23,13,25,24.10
2017,06,23,13,26,24.10
2017,06,23,13,27,24.10
2017,06,23,13,28,24.00
2017,06,23,13,29,24.00
2017,06,23,13,30,24.00
2017,06,23,13,31,23.90
2017,06,23,13,32,24.00
2017,06,23,13,33,23.90
2017,06,23,13,34,23.90
2017,06,23,13,35,24.00
2017,06,23,13,36,24.00
2017,06,23,13,37,23.90
2017,06,23,13,38,23.90
2017,06,23,13,39,24.00
2017,06,23,13,40,24.10
2017,06,23,13,41,24.20
2017,06,23,13,42,24.30
2017,06,23,13,43,24.30
2017,06,23,13,44,24.30
2017,06,23,13,45,24.40
2017,06,23,13,46,24.30
2017,06,23,13,47,24.30
2017,06,23,13,48,24.30
2017,06,23,13,49,24.30
2017,06,23,13,50,24.30
2017,06,23,13,51,24.30
2017,06,23,13,52,24.40
2017,06,23,13,53,24.50
2017,06,23,13,54,24.50
2017,06,23,13,55,24.60
2017,06,23,13,56,24.60
2017,06,23,13,57,24.60
2017,06,23,13,58,24.60
2017,06,23,13,59,24.60
2017,06,23,14,00,24.60
2017,06,23,14,01,24.70
2017,06,23,14,02,24.70
2017,06,23,14,03,24.70
2017,06,23,14,04,24.70
2017,06,23,14,05,24.80
2017,06,23,14,06,24.70
2017,06,23,14,07,24.60
2017,06,23,14,08,24.50
2017,06,23,14,09,24.50
2017,06,23,14,10,24.40
2017,06,23,14,11,24.40
2017,06,23,14,12,24.30
2017,06,23,14,13,24.40
2017,06,23,14,14,24.30
2017,06,23,14,15,24.30
2017,06,23,14,16,24.30
2017,06,23,14,17,24.30
2017,06,23,14,18,24.30
2017,06,23,14,19,24.20
2017,06,23,14,20,24.20
2017,06,23,14,21,24.10
2017,06,23,14,22,24.10
2017,06,23,14,23,24.20
2017,06,23,14,24,24.20
2017,06,23,14,25,24.20
2017,06,23,14,26,24.30
2017,06,23,14,27,24.30
2017,06,23,14,28,24.40
2017,06,23,14,29,24.50
2017,06,23,14,30,24.60
2017,06,23,14,31,24.70
2017,06,23,14,32,24.80
2017,06,23,14,33,24.80
2017,06,23,14,34,24.80
2017,06,23,14,35,24.80
2017,06,23,14,36,24.80
2017,06,23,14,37,24.90
2017,06,23,14,38,24.90
2017,06,23,14,39,24.90
2017,06,23,14,40,25.00
2017,06,23,14,41,25.00
2017,06,23,14,42,25.10
2017,06,23,14,43,25.10
2017,06,23,14,44,25.20
2017,06,23,14,45,25.20
2017,06,23,14,46,25.20
2017,06,23,14,47,25.20
2017,06,23,14,48,25.10
2017,06,23,14,49,25.10
2017,06,23,14,50,25.10
2017,06,23,14,51,25.10
2017,06,23,14,52,25.10
2017,06,23,14,53,25.20
2017,06,23,14,54,25.10
2017,06,23,14,55,25.20
2017,06,23,14,56,25.20
2017,06,23,14,57,25.20
2017,06,23,14,58,25.20
2017,06,23,14,59,25.00
2017,06,23,15,00,24.90
2017,06,23,15,01,24.80
2017,06,23,15,02,24.70
2017,06,23,15,03,24.60
2017,06,23,15,04,24.60
2017,06,23,15,05,24.60
2017,06,23,15,06,24.60
2017,06,23,15,07,24.80
2017,06,23,15,08,24.90
2017,06,23,15,09,25.10
2017,06,23,15,10,25.20
2017,06,23,15,11,25.40
2017,06,23,15,12,25.60
2017,06,23,15,13,25.70
2017,06,23,15,14,25.80
2017,06,23,15,15,25.70
2017,06,23,15,16,25.70
2017,06,23,15,17,25.60
2017,06,23,15,18,25.50
2017,06,23,15,19,25.40
2017,06,23,15,20,25.30
2017,06,23,15,21,25.20
2017,06,23,15,22,25.20
2017,06,23,15,23,25.30
2017,06,23,15,24,25.30
2017,06,23,15,25,25.40
2017,06,23,15,26,25.50
2017,06,23,15,27,25.70
2017,06,23,15,28,25.80
2017,06,23,15,29,25.90
2017,06,23,15,30,26.00
2017,06,23,15,31,26.10
2017,06,23,15,32,26.20
2017,06,23,15,33,26.20
2017,06,23,15,34,26.20
2017,06,23,15,35,26.20
2017,06,23,15,36,26.30
2017,06,23,15,37,26.30
2017,06,23,15,38,26.40
2017,06,23,15,39,26.50
2017,06,23,15,40,26.60
2017,06,23,15,41,26.70
2017,06,23,15,42,26.80
2017,06,23,15,43,26.80
2017,06,23,15,44,26.90
2017,06,23,15,45,26.90
2017,06,23,15,46,26.90
2017,06,23,15,47,26.90
2017,06,23,15,48,26.90
2017,06,23,15,49,26.90
2017,06,23,15,50,26.90
2017,06,23,15,51,26.80
2017,06,23,15,52,26.80
2017,06,23,15,53,26.80
2017,06,23,15,54,26.80
2017,06,23,15,55,26.80
2017,06,23,15,56,26.80
2017,06,23,15,57,26.90
2017,06,23,15,58,27.00
2017,06,23,15,59,27.00
2017,06,23,16,00,27.10
2017,06,23,16,01,27.10
2017,06,23,16,02,27.10
2017,06,23,16,03,27.10
2017,06,23,16,04,27.10
2017,06,23,16,05,27.10
2017,06,23,16,06,27.20
2017,06,23,16,07,27.20
2017,06,23,16,08,27.30
2017,06,23,16,09,27.30
2017,06,23,16,10,27.30
2017,06,23,16,11,27.30
2017,06,23,16,12,27.30
2017,06,23,16,13,27.20
2017,06,23,16,14,27.20
2017,06,23,16,15,27.20
2017,06,23,16,16,27.20
2017,06,23,16,17,27.10
2017,06,23,16,18,27.10
2017,06,23,16,19,27.10
2017,06,23,16,20,27.00
2017,06,23,16,21,26.90
2017,06,23,16,22,26.90
2017,06,23,16,23,26.90
2017,06,23,16,24,26.80
2017,06,23,16,25,26.90
2017,06,23,16,26,26.90
2017,06,23,16,27,27.00
2017,06,23,16,28,27.00
2017,06,23,16,29,27.00
2017,06,23,16,30,27.10
2017,06,23,16,31,27.10
2017,06,23,16,32,27.20
2017,06,23,16,33,27.20
2017,06,23,16,34,27.30
2017,06,23,16,35,27.40
2017,06,23,16,36,27.40
2017,06,23,16,37,27.50
2017,06,23,16,38,27.60
2017,06,23,16,39,27.60
2017,06,23,16,40,27.70
2017,06,23,16,41,27.70
2017,06,23,16,42,27.80
2017,06,23,16,43,27.80
2017,06,23,16,44,27.80
2017,06,23,16,45,27.90
2017,06,23,16,46,28.00
2017,06,23,16,47,28.00
2017,06,23,16,48,28.10
2017,06,23,16,49,28.10
2017,06,23,16,50,28.10
2017,06,23,16,51,28.10
2017,06,23,16,52,28.10
2017,06,23,16,53,28.10
2017,06,23,16,54,28.10
2017,06,23,16,55,28.10
2017,06,23,16,56,28.10
2017,06,23,16,57,28.10
2017,06,23,16,58,28.10
2017,06,23,16,59,28.10
2017,06,23,17,00,28.10
2017,06,23,17,01,28.10
2017,06,23,17,02,28.10
2017,06,23,17,03,28.10
2017,06,23,17,04,28.10
2017,06,23,17,05,28.10
2017,06,23,17,06,28.10
2017,06,23,17,07,28.10
2017,06,23,17,08,28.10
2017,06,23,17,09,28.00
2017,06,23,17,10,27.90
2017,06,23,17,11,27.90
2017,06,23,17,12,27.90
2017,06,23,17,13,27.90
2017,06,23,17,14,27.90
2017,06,23,17,15,27.80
2017,06,23,17,16,27.80
2017,06,23,17,17,27.80
2017,06,23,17,18,27.80
2017,06,23,17,19,27.80